Content
SEND FEEDBACK

Daily
Averages
Monthly
Summary
Sweden

MOLNDAL, SWEDEN


Home > Europe > Sweden
Elevation: 56 feet     Latitude: 57 46N     Longitude: 011 52E

WEATHER
 
SELECT A DAY
Number of Records: 254,479;   Date Range: 2/20/97 - 9/1/14
 
SHARE

PRINT THIS DATA

[ ← Previous Day ]
WEATHER ALMANAC - JANUARY 19, 2013
[ Next Day → ]
[ °C ]   °F
Weather ElementAverageHighLow
Temperature11.8 °F17.6 °F (2:20 pm)6.8 °F (7:50 am)
Dewpoint7.9 °F12.2 °F (1:20 am)3.2 °F (7:50 am)
Humidity84.3 %93 % (1:20 am)73 % (2:20 pm)
Barometer29.93 in30.04 in (12:50 am)29.83 in (9:50 pm)
Wind Speed5.3 mph9.2 mph (3:20 pm)
Weather ElementAverage
Visibility6.2 mi
Wind DirectionENE (54.3 °)

Weather ElementTotal
Precipitation---
Heating Degree Days52.8 (Base 65)
Averaged from 46 records on January 19, 2013
WEATHER CONDITIONS BREAKOUT
WIND DIRECTION BREAKOUT
WEATHER BY HOUR - JANUARY 19, 2013
[ °C ]   °F
Local TimeTemperatureDewpointHumidityBarometerVisibilityWind DirectionWind SpeedGust SpeedPrecipitationEventsConditions
12:50 AM14.0 °F10.4 °F86 %30.04 inNNE (20°)4.6 mphClear
1:20 AM14.0 °F12.2 °F93 %30.04 inNNE (20°)4.6 mphClear
1:50 AM15.8 °F12.2 °F86 %30.04 inNNE (30°)6.9 mphClear
2:20 AM14.0 °F8.6 °F79 %30.04 inNE (40°)8.1 mphClear
3:20 AM14.0 °F10.4 °F86 %30.01 in6.2 miNNE (30°)6.9 mphMostly Cloudy
3:50 AM12.2 °F8.6 °F85 %30.01 in6.2 miNE (40°)6.9 mphPartly Cloudy
4:20 AM12.2 °F8.6 °F85 %30.01 inNE (50°)6.9 mphClear
4:50 AM12.2 °F8.6 °F85 %30.01 in6.2 miNE (40°)4.6 mph
5:20 AM12.2 °F6.8 °F79 %30.01 inNNE (30°)4.6 mphClear
5:50 AM8.6 °F5.0 °F85 %29.98 inNNE (20°)4.6 mphClear
6:20 AM8.6 °F6.8 °F92 %29.98 inNNE (30°)4.6 mphClear
6:50 AM8.6 °F6.8 °F92 %29.98 inVariable2.3 mphClear
7:20 AM8.6 °F5.0 °F85 %29.98 inNNE (30°)4.6 mphClear
7:50 AM6.8 °F3.2 °F85 %29.98 inNorth (10°)3.5 mphClear
8:20 AM8.6 °F5.0 °F85 %29.98 inNNW (340°)2.3 mphClear
8:50 AM6.8 °F3.2 °F85 %29.98 inNorth (360°)6.9 mphClear
9:20 AM6.8 °F3.2 °F85 %29.95 inNorth (10°)3.5 mphClear
9:50 AM6.8 °F3.2 °F85 %29.98 inNNE (30°)2.3 mphClear
10:20 AM10.4 °F6.8 °F85 %29.98 inNorth (360°)5.8 mphClear
10:50 AM12.2 °F8.6 °F85 %29.95 inNNE (20°)5.8 mphClear
11:20 AM14.0 °F8.6 °F79 %29.95 inNNE (20°)5.8 mphClear
11:50 AM14.0 °F8.6 °F79 %29.95 inNNE (30°)6.9 mphClear
12:20 PM14.0 °F8.6 °F79 %29.95 inNNE (30°)5.8 mphClear
12:50 PM15.8 °F10.4 °F79 %29.92 inNNE (30°)6.9 mphClear
1:20 PM15.8 °F10.4 °F79 %29.92 inNE (40°)8.1 mphClear
1:50 PM15.8 °F10.4 °F79 %29.92 inNE (40°)6.9 mphClear
2:20 PM17.6 °F10.4 °F73 %29.89 inNE (40°)6.9 mphClear
2:50 PM17.6 °F10.4 °F73 %29.89 inNE (40°)8.1 mphClear
3:20 PM15.8 °F10.4 °F79 %29.89 inNE (40°)9.2 mphClear
3:50 PM14.0 °F10.4 °F86 %29.89 inNE (50°)6.9 mphClear
4:20 PM12.2 °F8.6 °F85 %29.89 inNNE (30°)4.6 mphClear
4:50 PM12.2 °F8.6 °F85 %29.89 in6.2 miNE (40°)4.6 mphScattered Clouds
5:20 PM12.2 °F8.6 °F85 %29.86 in6.2 miNE (40°)6.9 mphMostly Cloudy
5:50 PM12.2 °F10.4 °F92 %29.86 in6.2 miNE (50°)3.5 mphScattered Clouds
6:20 PM12.2 °F8.6 °F85 %29.86 in6.2 miENE (60°)4.6 mphOvercast
6:50 PM10.4 °F6.8 °F85 %29.86 in6.2 miNE (40°)4.6 mphOvercast
7:20 PM10.4 °F8.6 °F92 %29.86 in6.2 miVariable2.3 mphOvercast
7:50 PM12.2 °F8.6 °F85 %29.86 in6.2 miENE (70°)4.6 mphOvercast
8:20 PM12.2 °F8.6 °F85 %29.86 in6.2 miNE (50°)6.9 mphSnowLight Snow
8:50 PM12.2 °F8.6 °F85 %29.86 in6.2 miENE (70°)6.9 mphSnowLight Snow
9:20 PM8.6 °F5.0 °F85 %29.86 in6.2 miNE (40°)3.5 mphPartly Cloudy
9:50 PM8.6 °F6.8 °F92 %29.83 in6.2 miNNE (20°)3.5 mphPartly Cloudy
10:20 PM8.6 °F5.0 °F85 %29.83 inNorth (10°)3.5 mphClear
10:50 PM8.6 °F5.0 °F85 %29.83 inNNE (20°)4.6 mphClear
11:20 PM10.4 °F6.8 °F85 %29.83 in6.2 miNE (50°)3.5 mphScattered Clouds
11:50 PM10.4 °F6.8 °F85 %29.83 in6.2 miNE (40°)3.5 mphPartly Cloudy
Hourly data recorded from ESGP, located miles away from Molndal, Sweden







STORIES FROM OUR PARTNERS